Погода в Кирове

Погода в Кирове : погода сейчас, прогноз погоды и архив. Всё, что Вы хотите узнать о погоде в Кирове!

Хотите узнать прогноз погоды в Кирове? Тогда Вам сюда: Погода в Кирове

Поиск расширенной информации на нашем сайте:

Другие новости

Новости СМИ2

Главная страница сайта

Новости сайта

03.07.2017

Напоминаем, что на нашем специализированном сайте Метеоцентр.Азия вы можете получить высокодетализированные автоматические прогнозы погоды по пунктам России, СНГ и мира в авиационном формате (включающие направление и скорость ветра, видимость, явления погоды, количество и форму облачности, нижнюю и верхнюю границу облачности).

Рекомендуем: Деревянные окна Marconi

Погода в Кирове - сегодня

Время (UTC), дата Ветер
(°,м/с) 
Видим.   Явления Облачность Т
(°С)
Тd
(°С)
f(%) Тe
(°С)
Pmin
(гПа)
dP
(гПа)
Po
(мм)
O2
(г/м3)
Тmin Tmax R s Состояние
почвы
03 21.09.17 350 (С) 3-5{06}  20000 м  {дождь}  10/8 300 м средняя 
[Frnb|Ac trans]
+6.1 +3.7 85 +5  1027.3  756  297  +6    0.3    влажная 
06 21.09.17 360 (С) 3-6{07}  20000 м  в посл. час ливневой дождь  10/10 600 м кучево-дожд. 
[Cb calv]
+6.6 +2.7 76 +6  1029.2  1.9  757  297  +5.7         
09 21.09.17 360 (С) 3-8{08}  20000 м    9/9 600 м кучево-дожд. 
[Cb calv]
+8.2 +2.3 66 +8  1029.9  0.8  758  296           
12 21.09.17 350 (С) 3-6{08}  20000 м    10/10 600 м кучево-дожд. 
[Cb calv]
+8.2 +2.7 68 +8  1031.4  1.5  759  296           
15 21.09.17 010 (С) 3-6{07}  20000 м  в посл. час ливневой дождь  10/10 600 м кучево-дожд. 
[Cb cap]
+7 +4.5 84 +6  1033  1.5  760  298    +9  0.0     
18 21.09.17 350 (С) 3-6{07}  20000 м  {ливн. осадки}  9/9 600 м 
[Sc]
+6 +4.4 89 +5  1034.5  1.4  761  299           
21 21.09.17 010 (С) 2-4{08}  20000 м    ясно 
+4.6 +3.4 92 +4  1035.9  1.3  762  301           
00 22.09.17 010 (С) 2-5{06}  20000 м    10/10 200 м 
[St]
+3.6 +2.9 95 +3  1037.3  1.3  763  303           
03 22.09.17 030 (СВ) 2-5{06}  20000 м    10/10 300 м 
[St]
+4.2 +2.7 90 +4  1038.8  1.5  764  303  +3.1        влажная 
06 22.09.17 040 (СВ) 2-5{06}  20000 м    10/10 300 м 
[Sc]
+5 +3 87 +5  1039.2  0.5  764  302           
09 22.09.17 040 (СВ) 2-5{06}  20000 м    10/10 600 м 
[Sc]
+6 +2.9 80 +6  1039.8  0.6  765  301           
12 22.09.17 360 (С) 2-4{05}  20000 м    8/8 600 м 
[Sc]
+8 +3.2 72 +8  1039.6  -0.1  765  299           
15 22.09.17 030 (СВ) 1-2{04}  20000 м    8/5 600 м средняя 
[Sc|Ac trans]
+7.2 +3.8 79 +8  1038.9  -0.7  764  300    +8.1       
18 22.09.17 100 (В) 1-2{03}  10 км    10/5 600 м средняя 
[Sc|As trans]
+6 +4.4 89 +7  1039.1  0.1  764  301           
21 22.09.17 040 (СВ) 1-2{04}  20000 м    10/10 600 м 
[Sc]
+6.2 +4.3 88 +7  1039.8  0.7  765  301           
00 23.09.17 тихо () -1{03}  20000 м    10/10 600 м 
[Sc]
+5.5 +3.8 89 +6  1039.4  -0.4  765  301           
03 23.09.17 тихо () -0{01}  20000 м    10/0 средняя, верхняя 
[Ac lent|Ci]
+2 +1.7 98 +2  1039.8  0.1  765  306  +2        влажная 
06 23.09.17 190 (Ю) 1-3{03}  20000 м    10/10 600 м 
[Sc]
+4.9 +3.7 92 +6  1038.4  -1.2  764  302  +1.8         
09 23.09.17 290 (З) 1-3{05}  20000 м    10/8 600 м средняя 
[Sc|Ac As]
+6.3 +3.7 83 +7  1037.6  -0.6  763  300           
12 23.09.17 270 (З) 2-4{05}  20000 м    10/4 1000 м средняя 
[Sc|Ac As]
+8.1 +4 75 +8  1036.4  -1.1  763  298           
15 23.09.17 270 (З) 1-2{05}  20000 м    6/3 600 м средняя 
[Sc|Ac trans]
+7 +4 81 +8  1036  -0.5  762  299    +8.3       
18 23.09.17 тихо () -0{02}  20000 м    10/10 600 м 
[Sc]
+6.9 +5.1 88 +7  1036.2  0.2  762  299           
21 23.09.17 тихо () -0{01}  20000 м    10/10 600 м 
[Sc]
+6.5 +3.7 82 +7  1036.4  0.2  762  300           
00 24.09.17 330 (СЗ) 1-3{03}  20000 м  слаб. дождь  10/10 600 м 
[Sc]
+5.9 +5 94 +7  1037.3  0.8  763  300           
03 24.09.17 330 (СЗ) 1-2{03}  20000 м  {дождь}  8/0 средняя, верхняя 
[Ac As|Ci fib]
+4.2 +4 99 +5  1038.1  0.7  764  302  +4    0.1    влажная 
Время (UTC), дата Ветер
(°,м/с) 
Видим.   Явления Облачность Т
(°С)
Тd
(°С)
f(%) Тe
(°С)
Pmin
(гПа)
dP
(гПа)
Po
(мм)
O2
(г/м3)
Тmin Tmax R s Состояние
почвы

Для получения пояснительной информации подведите курсор к названию столбца.

ПОГОДА в Кирове - архив

Всё, что Вы хотите узнать о погоде в Кирове - удобно и подробно!

Выберите нужную дату (начиная с 1 января 2015* года) и нажмите кнопку "Найти".
Будут отображены архивные сводки погоды по пункту Киров, начиная с указанной даты.


Отображать данные в формате CSV (для использования в таблицах Excel)


Внимание! Наш архив погоды предназначен исключительно для личного некоммерческого использования в познавательных целях. Если Вам необходимы официальные справки о состоянии погоды (для производственных, юридических, коммерческих и т.п. целей), обращайтесь в органы Росгидромета.

*Примечание: данная дата относится к архиву по метеостанциям СССР (Россия, СНГ, Балтия).
Архив по метеостанциям Зарубежной Европы и Азии (кроме Китая) хранится 10 дней, по другим регионам земного шара (Китай, Африка, Америка, Австралия, Океания) - 1 день.

Киров - район местоположения метеостанции


Название, широта, долгота, высота метеостанции:
Киров 58.6°ш. 49.6°д. 158 м над ур. моря [Российская Федерация]

Дополнительная информация

В oтличие oт бoльшинства пoгoдных сайтoв мы публикуем пoдрoбную метеoинфoрмацию в детальнoм прoфессиoнальнoм фoрмате.

Характеристики температуры и влажнoсти вoздуха измеряются на высoте 2 м в тени вдали oт зданий и деревьев.
Скoрoсть ветра измеряется на высoте 10 м (на урoвне рoста челoвека скoрoсть ветра ниже в 1.5-2 раза). Если метеoстанция нахoдится в гoрoде или в лесу, тo скoрoсть ветра занижена на 2-4 м/с пo сравнению с oткрытым местoм. Скoрoсть ветра над акватoриями крупных рек и oзёр, а также на вершинах хoлмoв на 2-5 м/с выше, чем в oбычных услoвиях.
Атмoсфернoе давление в разных тoчках местнoсти мoжет значительнo oтличаться oт давления на метеoстанции, в зависимoсти oт услoвий рельефа (при пoдъёме на 10 м давление пoнижается примернo на 1 мм рт.ст.).